Weather in Krasnouralsk

Russia / Orenburg Oblast     51°21′02″N   56°53′04″E
temp.,
°C
wind,
m/s
gust,
m/s
humid.,
%
clouds,
%
prec.,
mm/h
press.,
hPa
HPBL,
m
16 october, sat
sat1623:00+11s4736100 0.0 1026110
02:00+10s4938100 0.0 1026169
05:00+10sw3539100 0.0 1026133
08:00+10ssw2450100 0.1 1026125
11:00+9ssw2576100 2.9 1026219
14:00+11wsw466599 0.0 1026628
17:00+13wsw355516 0.0 10251075
20:00+10ssw226264 0.0 102512
17 october, sun
sun1723:00+10sse2256100 0.0 102514
02:00+10sse225678 0.0 102434
05:00+8s22545 0.0 102418
08:00+7s22485 0.0 102421
11:00+13ssw463024 0.0 1023428
14:00+16ssw5626100 0.0 1022959
17:00+16sw3528100 0.0 1021166
20:00+13s3336100 0.0 102230
18 october, mon
mon1823:00+12s3738100 0.0 1021129
02:00+11s4939100 0.0 1021162
05:00+10s3741100 0.0 1021122
08:00+9s3743100 0.0 1020112
11:00+13s5931100 0.0 1020457
14:00+16s6724100 0.0 1018881
17:00+15s4725100 0.0 1017549
20:00+12sse3331100 0.0 101740
19 october, tue
tue1923:00+10sse3533100 0.0 101782
02:00+9sse343473 0.0 101663
05:00+8sse3434100 0.0 101558
08:00+8sse2234100 0.0 101429
11:00+13s4725100 0.0 1014442
14:00+16ssw562292 0.0 10121087
17:00+15ssw4623100 0.0 1010341
20:00+12ssw3429100 0.0 101065
20 october, wed
wed2023:00+12sw373486 0.0 1010159
02:00+11w2437100 0.0 100998
05:00+10w3753100 0.0 1009248
08:00+7w4876100 0.0 1010190
11:00+9wnw4566100 0.0 1010570
14:00+11wnw4551100 0.0 10101277
17:00+9nw5558100 0.0 10111198
20:00+8nnw4660100 0.1 1012866